FW3691 Weather Reports


time (UTC)temp
C
wind
direction
speed
KPH
gust
KPH
rain 1hr
cm
rain 24hr
cm
rain mn
cm
humidity
%
barometer
mb
20260510104514 16 42 0.0 0.0 0.00 0.00 0.00 84 1013.2
20260510103014 16 42 0.0 3.2 0.00 0.00 0.00 83 1013.1
20260510101511 16 42 0.0 4.8 0.00 0.00 0.00 82 1012.8
20260510100009 17 55 0.0 1.6 0.00 0.00 0.00 81 1012.8
20260510094523 17 55 1.6 4.8 0.00 0.00 0.00 80 1012.9
20260510093011 17 55 0.0 0.0 0.00 0.00 0.00 78 1012.9
20260510091512 17 55 0.0 1.6 0.00 0.00 0.00 77 1012.8
20260510090002 18 55 1.6 6.4 0.00 0.00 0.00 75 1012.3
20260510084602 18 282 0.0 4.8 0.00 0.03 0.00 74 1012.0
20260510083059 18 44 4.8 8.0 0.00 0.03 0.00 73 1011.1
20260510081556 18 23 8.0 14.5 0.00 0.03 0.00 72 1010.8
20260510080054 18 5 1.6 4.8 0.00 0.03 0.00 72 1010.3
20260510074553 19 190 3.2 11.3 0.00 0.03 0.00 70 1008.6
20260510073050 19 139 3.2 9.7 0.00 0.03 0.00 71 1010.7
20260510071552 20 238 3.2 19.3 0.00 0.03 0.00 69 1012.0
20260510070045 20 157 4.8 14.5 0.00 0.03 0.00 66 1011.7
20260510064542 20 239 9.7 22.5 0.00 0.03 0.00 68 1014.0
20260510063041 20 211 3.2 11.3 0.00 0.03 0.00 71 1013.5
20260510061541 20 155 1.6 8.0 0.00 0.03 0.00 67 1013.1
20260510060037 20 65 0.0 0.0 0.00 0.03 0.00 66 1013.3
20260510054536 20 355 0.0 3.2 0.00 0.03 0.00 69 1014.0
20260510053051 20 15 1.6 8.0 0.00 0.03 0.00 66 1014.0
20260510051531 20 40 3.2 6.4 0.00 0.03 0.00 68 1013.7
20260510050027 19 22 1.6 4.8 0.00 0.03 0.00 71 1013.3
20260510044526 20 101 0.0 0.0 0.00 0.05 0.03 73 1012.8
20260510043037 20 101 0.0 0.0 0.00 0.05 0.03 67 1012.5
20260510041527 20 101 0.0 0.0 0.00 0.05 0.03 65 1012.1
20260510040033 20 101 0.0 0.0 0.00 0.05 0.03 66 1011.9
20260510034521 20 101 0.0 0.0 0.00 0.05 0.03 63 1011.7
20260510033021 20 101 0.0 0.0 0.00 0.05 0.03 64 1011.9
20260510031523 21 101 0.0 3.2 0.00 0.05 0.03 61 1011.9
20260510030019 20 101 0.0 1.6 0.00 0.05 0.03 62 1011.9
20260510024519 21 101 0.0 0.0 0.00 0.05 0.03 63 1011.4
20260510023018 21 101 0.0 0.0 0.00 0.05 0.03 58 1010.9
20260510021531 21 101 0.0 0.0 0.00 0.05 0.03 58 1010.3
20260510020017 22 101 0.0 0.0 0.00 0.05 0.03 53 1009.9
20260510014519 22 101 0.0 0.0 0.00 0.05 0.03 51 1009.5
20260510013023 23 101 0.0 0.0 0.00 0.05 0.03 48 1009.4
20260510011515 25 101 0.0 1.6 0.00 0.05 0.03 45 1009.3
20260510010015 26 101 0.0 0.0 0.00 0.05 0.03 45 1009.2
20260510004517 26 101 0.0 1.6 0.00 0.51 0.03 43 1009.2
20260510003014 26 101 0.0 1.6 0.00 0.51 0.03 44 1008.9
20260510001513 27 133 1.6 6.4 0.00 0.51 0.03 43 1008.9
20260510000012 27 136 1.6 6.4 0.00 0.51 0.03 42 1008.9
20260509234511 27 139 1.6 6.4 0.00 1.32 0.03 43 1009.1
20260509233010 28 175 0.0 9.7 0.00 1.32 0.03 40 1009.1
20260509231507 28 132 3.2 12.9 0.00 1.32 0.03 36 1009.2
20260509230008 28 161 3.2 8.0 0.00 1.32 0.03 34 1009.6
20260509224507 28 182 1.6 9.7 0.00 1.32 0.03 35 1009.6
20260509223003 28 31 1.6 8.0 0.00 1.32 0.03 36 1009.5
20260509221502 29 159 1.6 4.8 0.00 1.32 0.03 33 1009.7
20260509220002 28 137 3.2 8.0 0.00 1.32 0.03 34 1009.7
20260509214631 28 169 0.0 6.4 0.00 1.32 0.03 36 1009.7
20260509213100 28 116 3.2 8.0 0.00 1.32 0.03 34 1009.8
20260509211556 28 135 3.2 14.5 0.00 1.32 0.03 38 1010.0
20260509210100 28 194 0.0 12.9 0.00 1.32 0.03 43 1010.3
20260509204552 28 118 4.8 12.9 0.00 1.32 0.03 36 1010.5
20260509203100 28 205 1.6 8.0 0.00 1.32 0.03 34 1010.5
20260509201548 28 119 3.2 12.9 0.00 1.32 0.03 32 1010.5
20260509200047 28 171 0.0 9.7 0.00 1.32 0.03 40 1010.8
20260509194549 28 105 0.0 6.4 0.00 1.32 0.03 36 1010.9
20260509193046 28 138 3.2 6.4 0.00 1.32 0.03 38 1011.0
20260509191555 28 115 0.0 4.8 0.00 1.32 0.03 37 1011.1
20260509190041 28 150 0.0 6.4 0.00 1.32 0.03 40 1010.9
20260509184545 28 68 1.6 4.8 0.00 1.32 0.03 46 1011.0
20260509183046 27 186 0.0 4.8 0.00 1.32 0.03 53 1011.2
20260509181530 27 254 1.6 6.4 0.00 1.32 0.03 47 1011.3
20260509180027 27 128 0.0 4.8 0.00 1.32 0.03 50 1011.5
20260509174524 26 252 0.0 6.4 0.00 1.32 0.03 61 1011.5
20260509173022 26 142 1.6 6.4 0.00 1.32 0.03 61 1011.8
20260509171519 25 163 0.0 6.4 0.00 1.32 0.03 66 1011.9
20260509170022 25 134 0.0 4.8 0.00 1.32 0.03 65 1012.1
20260509164513 24 157 0.0 8.0 0.00 1.32 0.03 70 1012.3
20260509163011 23 247 0.0 4.8 0.00 1.32 0.03 72 1012.2
20260509161505 23 123 0.0 9.7 0.00 1.32 0.03 72 1012.1
20260509160002 22 153 0.0 0.0 0.00 1.32 0.03 76 1012.0
20260509154558 22 117 0.0 0.0 0.00 1.32 0.03 81 1011.9
20260509153105 21 143 0.0 3.2 0.00 1.32 0.03 82 1011.9
20260509151553 21 139 1.6 4.8 0.00 1.32 0.03 82 1011.9
20260509150047 20 156 0.0 4.8 0.00 1.32 0.03 87 1011.9
20260509144542 18 137 0.0 1.6 0.00 1.32 0.03 92 1011.9
20260509143040 18 121 0.0 4.8 0.00 1.32 0.03 94 1012.0
20260509141535 17 150 0.0 0.0 0.00 1.32 0.03 96 1012.0
20260509140032 16 152 0.0 0.0 0.00 1.32 0.03 97 1011.9
20260509134528 15 152 0.0 0.0 0.00 1.32 0.03 97 1011.7
20260509133027 15 74 0.0 1.6 0.00 1.32 0.03 97 1011.3
20260509131524 15 355 0.0 1.6 0.00 1.32 0.03 97 1011.2
20260509130032 13 355 0.0 1.6 0.00 1.32 0.03 97 1011.3
20260509124523 13 355 0.0 1.6 0.00 1.32 0.03 97 1010.9
20260509123022 12 355 0.0 3.2 0.00 1.32 0.03 96 1010.8
20260509121525 12 355 0.0 1.6 0.00 1.32 0.03 96 1010.8
20260509120021 12 355 0.0 0.0 0.00 1.32 0.03 96 1010.6
20260509114520 12 355 0.0 0.0 0.00 1.32 0.03 96 1010.5
20260509113019 12 355 0.0 0.0 0.00 1.32 0.03 96 1010.5
20260509111518 12 355 0.0 0.0 0.00 1.32 0.03 96 1010.4
20260509110017 12 355 0.0 0.0 0.00 1.32 0.03 96 1010.4